Regional Weather Roundup
Issued by NWS

Home | Current Version | Previous Version | Text Only | Print | Product List | Glossary On
Versions: 1 2 3 4 5 6 7 8 9 10 11 12 13 14 15 16 17 18 19 20 21 22 23 24 25 26 27 28 29 30 31 32 33 34 35 36 37 38 39 40 41 42 43 44 45 46 47 48 49 50
218
ASUS44 KLIX 081013
RWRLA
LOUISIANA WEATHER ROUNDUP
NATIONAL WEATHER SERVICE NEW ORLEANS LA
400 AM CST THU DEC 08 2016

NOTE: "FAIR" INDICATES FEW OR NO CLOUDS BELOW 12,000 FEET WITH NO
      SIGNIFICANT WEATHER AND/OR OBSTRUCTIONS TO VISIBILITY.
      SKY/WX - SKY CONDITION AND SIGNIFICANT WEATHER.
      TMP - AIR TEMPERATURE.    DP   - DEWPOINT TEMPERATURE.
      RH  - RELATIVE HUMIDITY.  PRES - PRESSURE.
      HX  - HEAT INDEX.         WCI  - WIND CHILL INDEX.

*  THESE STATIONS ARE NOT NWS OR FAA STATIONS AND ARE NOT UNDER
   NWS QUALITY CONTROL.

LAZ040-048-061>063-065-066-069-081100-
SOUTHEAST LOUISIANA

CITY           SKY/WX    TMP DP  RH WIND       PRES   REMARKS
N.O. AUDUBON   NOT AVBL
N.O. INTL ARPT CLOUDY    58  54  86 NE9       30.18R
N.O. LAKEFRONT CLOUDY    58  53  84 N14       30.18R
N.O. DOWNTOWN*   N/A     58  54  86 N7        30.18R
RESERVE*       CLOUDY    58  55  89 NE8       30.19R
SLIDELL        CLOUDY    54  52  93 NE5       30.18R
BATON ROUGE    CLOUDY    52  49  89 N12       30.21R
BOOTHVILLE     CLOUDY    58  57  97 NE10      30.15F
BELLE CHASSE   CLOUDY    57  55  93 N5        30.16R
BOGALUSA*      CLOUDY    51  48  90 N7        30.23R
GALLIANO*      MOSUNNY   58  54  88 N6        30.15R
NEW ROADS*     LGT RAIN  50  48  93 N8        30.24R
GONZALES*      CLOUDY    54  51  89 N9        30.18R
HAMMOND*       CLOUDY    52  48  87 N6        30.20S
HOUMA*         CLOUDY    56  55  95 N9        30.15S FOG
PORT FOURCHON* MOSUNNY   61  57  88 E12G17    30.12F

$$

LAZ041-044-053-054-081100-
SOUTHWEST LOUISIANA

CITY           SKY/WX    TMP DP  RH WIND       PRES   REMARKS
LAKE CHARLES   LGT RAIN  53  51  93 NE13      30.21R
LAFAYETTE      LGT RAIN  54  51  90 N16       30.21R
PATTERSON      CLOUDY   N/A N/A N/A NE10      30.18R HAZE
SALT POINT     NOT AVBL
NEW IBERIA     CLOUDY    55  49  80 N15       30.21R
CHENAULT AIRPK CLOUDY    52  50  95 N8        30.23R

$$

LAZ027-028-081100-
CENTRAL LOUISIANA

CITY           SKY/WX    TMP DP  RH WIND       PRES   REMARKS
FORT POLK      LGT RAIN  49  48  97 VRB7      30.25R FOG
ALEXANDRIA INT LGT RAIN  47  46  97 N8        30.26R FOG
ALEXANDRIA     LGT RAIN  47  45  93 NE3       30.28R

$$

LAZ001-002-081100-
NORTHWEST LOUISIANA

CITY           SKY/WX    TMP DP  RH WIND       PRES   REMARKS
SHREVEPORT     CLOUDY    41  39  93 NE12      30.37R
BARKSDALE AFB  CLOUDY    39  39  98 N15       30.37R WCI  31
DTN SHREVEPORT CLOUDY    40  37  89 N10       30.38R WCI  33

$$

LAZ014-016-081100-
NORTHEAST LOUISIANA

CITY           SKY/WX    TMP DP  RH WIND       PRES   REMARKS
MONROE         CLOUDY    43  37  79 N13       30.34R
TALLULAH       PTCLDY    44  39  82 N18       30.30F

$$





USA.gov is the U.S. government's official web portal to all federal, state and local government web resources and services.